Content
SEND FEEDBACK

Daily
Averages
Monthly
Summary
United States of America

ROSEMOUNT, MINNESOTA


Home > North America > United States > Minnesota
Elevation: 288 meters     Latitude: 44 43N     Longitude: 093 05W

WEATHER
 
SELECT A DAY
Number of Records: 294,711;   Date Range: 1/4/95 - 10/19/14
 
SHARE

PRINT THIS DATA

[ ← Previous Day ]
WEATHER ALMANAC - 31 JANUARY, 2013
[ Next Day → ]
[ °F ]   °C
Weather ElementAverageHighLow
Temperature-15.4 °C-11.9 °C (12:32 am)-20.5 °C (11:52 pm)
Dewpoint-20.5 °C-16.5 °C (12:32 am)-26 °C (11:52 pm)
Humidity65.8 %74 % (3:12 am)58 % (4:52 pm)
Barometer1015.6 hPa1024.7 hPa (11:32 pm)1007.5 hPa (12:32 am)
Wind Speed21.1 km/h33.3 km/h (8:52 am)
Wind Gust44.4 km/h (8:52 am)
Weather ElementAverage
Visibility13 km
Wind DirectionWNW (306.8 °)

Weather ElementTotal
Precipitation---
Heating Degree Days34.6 (Base 18.3)
Averaged from 68 records on 31 January, 2013
WEATHER CONDITIONS BREAKOUT
WIND DIRECTION BREAKOUT
WEATHER BY HOUR - 31 JANUARY, 2013
[ °F ]   °C
Local TimeTemperatureDewpointHumidityBarometerVisibilityWind DirectionWind SpeedGust SpeedPrecipitationEventsConditions
12:32 AM-11.9 °C-16.5 °C69 %1007.5 hPa16.1 kmWNW (300°)16.7 km/h29.6 km/hScattered Clouds
12:52 AM-12.1 °C-16.7 °C69 %1007.8 hPa16.1 kmNW (310°)20.4 km/h27.8 km/hOvercast
1:12 AM-12.5 °C-17 °C70 %1007.8 hPa16.1 kmWNW (290°)24.1 km/h29.6 km/hMostly Cloudy
1:32 AM-12.6 °C-17.2 °C69 %1008.1 hPa16.1 kmWNW (300°)18.5 km/h31.5 km/hScattered Clouds
1:52 AM-12.7 °C-17.5 °C68 %1008.1 hPa16.1 kmNW (310°)27.8 km/h37 km/hOvercast
2:12 AM-12.7 °C-17.2 °C70 %1008.5 hPa16.1 kmNW (310°)20.4 km/h25.9 km/hOvercast
2:32 AM-12.8 °C-17.2 °C70 %1008.5 hPa16.1 kmNW (310°)14.8 km/h29.6 km/hScattered Clouds
2:52 AM-13 °C-17 °C73 %1008.5 hPa16.1 kmNW (310°)22.2 km/h31.5 km/hScattered Clouds
3:12 AM-13.2 °C-17 °C74 %1008.5 hPa11.3 kmWNW (290°)16.7 km/hScattered Clouds
3:32 AM-13.2 °C-17.4 °C71 %1008.5 hPa16.1 kmWNW (300°)18.5 km/h29.6 km/hOvercast
3:52 AM-13.3 °C-18 °C68 %1008.8 hPa16.1 kmNW (310°)20.4 km/hOvercast
4:12 AM-13.3 °C-18 °C68 %1009.1 hPa16.1 kmNW (310°)13 km/hOvercast
4:32 AM-13.6 °C-18 °C70 %1009.5 hPa16.1 kmWNW (300°)20.4 km/h25.9 km/hOvercast
4:52 AM-13.7 °C-18.3 °C69 %1009.8 hPa16.1 kmWNW (300°)18.5 km/h25.9 km/hOvercast
5:12 AM-13.8 °C-18.5 °C68 %1009.8 hPa16.1 kmNW (320°)20.4 km/h25.9 km/hOvercast
5:32 AM-14 °C-18.5 °C69 %1010.2 hPa16.1 kmNW (310°)20.4 km/h29.6 km/hOvercast
5:52 AM-14 °C-18.5 °C69 %1010.2 hPa16.1 kmNW (320°)24.1 km/h31.5 km/hOvercast
6:12 AM-14.1 °C-18.6 °C69 %1010.8 hPa16.1 kmNW (320°)22.2 km/h33.3 km/hOvercast
6:32 AM-14.1 °C-18.5 °C70 %1011.2 hPa11.3 kmNW (310°)22.2 km/h31.5 km/hOvercast
6:52 AM-14.5 °C-18.6 °C72 %1011.2 hPa6.4 kmWNW (290°)22.2 km/h33.3 km/hHaze
7:12 AM-14.7 °C-19.2 °C69 %1011.5 hPa8 kmNW (310°)24.1 km/h35.2 km/hHaze
7:32 AM-14.7 °C-18.6 °C73 %1011.9 hPa6.4 kmWNW (300°)16.7 km/h33.3 km/hHaze
7:52 AM-14.8 °C-19.2 °C70 %1012.2 hPa11.3 kmNW (310°)24.1 km/h31.5 km/hOvercast
8:12 AM-15.1 °C-19.6 °C69 %1012.5 hPa8 kmWNW (300°)24.1 km/h31.5 km/hHaze
8:32 AM-15.3 °C-20 °C68 %1012.9 hPa16.1 kmNW (310°)20.4 km/hMostly Cloudy
8:52 AM-15.6 °C-20.2 °C69 %1013.2 hPa6.4 kmNW (320°)33.3 km/h44.4 km/hHaze
9:17 AM-15.5 °C-20.3 °C67 %1013.5 hPa8 kmNW (310°)20.4 km/h35.2 km/hHaze
9:32 AM-15.5 °C-20.4 °C67 %1013.9 hPa11.3 kmNW (320°)18.5 km/h37 km/hClear
9:52 AM-15.5 °C-20.3 °C67 %1014.6 hPa11.3 kmNW (320°)16.7 km/h33.3 km/hScattered Clouds
10:12 AM-15.5 °C-20.4 °C67 %1014.9 hPa11.3 kmNW (320°)24.1 km/hClear
10:32 AM-15.5 °C-20.5 °C66 %1015.2 hPa6.4 kmNW (310°)22.2 km/h33.3 km/hHaze
10:52 AM-15.5 °C-20.6 °C66 %1015.6 hPa8 kmWNW (300°)27.8 km/h35.2 km/hHaze
11:12 AM-15.5 °C-20.5 °C66 %1015.6 hPa11.3 kmNW (310°)25.9 km/h37 km/hClear
11:32 AM-15.5 °C-20.2 °C68 %1015.9 hPa4.8 kmNW (310°)22.2 km/h38.9 km/hHaze
11:52 AM-15.5 °C-20 °C69 %1015.9 hPa4 kmNW (320°)25.9 km/h38.9 km/hHaze
12:12 PM-15.4 °C-20.2 °C67 %1016.3 hPa4.8 kmNNW (330°)24.1 km/hHaze
12:32 PM-15.5 °C-20.8 °C65 %1016.6 hPa8 kmNW (320°)25.9 km/h35.2 km/hHaze
12:52 PM-15 °C-19.9 °C67 %1016.6 hPa4.8 kmNW (310°)27.8 km/h35.2 km/hHaze
1:12 PM-15.1 °C-20.5 °C64 %1016.6 hPa8 kmNW (320°)24.1 km/h37 km/hHaze
1:32 PM-15.3 °C-20.8 °C64 %1016.9 hPa6.4 kmNW (310°)27.8 km/h37 km/hHaze
1:52 PM-15.5 °C-21.2 °C63 %1017.3 hPa11.3 kmNW (320°)27.8 km/h40.7 km/hClear
2:12 PM-15.3 °C-21.1 °C62 %1017.3 hPa16.1 kmNW (320°)24.1 km/h31.5 km/hClear
2:32 PM-15.3 °C-21 °C63 %1017.6 hPa8 kmNW (320°)25.9 km/h42.6 km/hHaze
2:52 PM-15.1 °C-21.3 °C60 %1017.9 hPa16.1 kmNW (320°)22.2 km/h42.6 km/hClear
3:12 PM-15.1 °C-20.7 °C63 %1018.3 hPa11.3 kmNW (320°)31.5 km/h40.7 km/hClear
3:32 PM-15 °C-20.8 °C62 %1018.6 hPa16.1 kmNW (310°)29.6 km/h35.2 km/hClear
3:52 PM-15.2 °C-21.1 °C62 %1018.6 hPa11.3 kmNW (310°)29.6 km/h40.7 km/hClear
4:12 PM-15.3 °C-20.8 °C64 %1019.3 hPa11.3 kmNW (310°)24.1 km/h35.2 km/hClear
4:32 PM-15.2 °C-21.4 °C60 %1019.6 hPa16.1 kmNW (310°)22.2 km/h33.3 km/hClear
4:52 PM-15.5 °C-22 °C58 %1020 hPa16.1 kmWNW (290°)25.9 km/h38.9 km/hClear
5:12 PM-15.6 °C-21.8 °C60 %1020.3 hPa16.1 kmWNW (300°)14.8 km/hClear
5:32 PM-15.7 °C-22.2 °C58 %1020.3 hPa16.1 kmWNW (300°)27.8 km/h33.3 km/hClear
6:12 PM-16.1 °C-22.2 °C60 %1021 hPa16.1 kmWNW (300°)16.7 km/h38.9 km/hClear
6:32 PM-16.5 °C-22.5 °C61 %1021.3 hPa16.1 kmWNW (300°)14.8 km/h31.5 km/hClear
6:52 PM-16.6 °C-22.5 °C61 %1021.7 hPa16.1 kmWNW (300°)20.4 km/h31.5 km/hClear
7:12 PM-16.8 °C-22.7 °C61 %1021.7 hPa16.1 kmWNW (300°)18.5 km/h29.6 km/hClear
7:32 PM-17.3 °C-23.1 °C62 %1022 hPa16.1 kmWNW (300°)16.7 km/h27.8 km/hClear
7:52 PM-17.6 °C-23.2 °C63 %1022.4 hPa16.1 kmWNW (300°)14.8 km/hClear
8:12 PM-17.8 °C-23.5 °C62 %1022.7 hPa16.1 kmWNW (300°)14.8 km/h25.9 km/hClear
8:32 PM-18.1 °C-23.6 °C63 %1023 hPa16.1 kmWNW (300°)14.8 km/hClear
8:52 PM-18.3 °C-23.7 °C63 %1023.4 hPa16.1 kmWNW (290°)11.1 km/hClear
9:12 PM-18.8 °C-24.1 °C64 %1023.4 hPa16.1 kmWNW (290°)16.7 km/h25.9 km/hClear
9:32 PM-19 °C-24.5 °C63 %1023.7 hPa16.1 kmWNW (290°)16.7 km/hClear
10:12 PM-19.5 °C-24.9 °C63 %1024 hPa16.1 kmWNW (290°)14.8 km/hClear
10:32 PM-19.7 °C-25 °C64 %1024 hPa16.1 kmWNW (300°)16.7 km/h27.8 km/hClear
11:12 PM-20.1 °C-25.5 °C63 %1024.4 hPa16.1 kmWNW (290°)13 km/h25.9 km/hClear
11:32 PM-20.2 °C-25.9 °C61 %1024.7 hPa16.1 kmWNW (300°)16.7 km/hClear
11:52 PM-20.5 °C-26 °C62 %1024.7 hPa16.1 kmWNW (300°)11.1 km/hClear
Hourly data recorded from KSGS, located 0 kilometers away from Rosemount, Minnesota







STORIES FROM OUR PARTNERS